Regional Weather Roundup
Issued by NWS

Home | Current Version | Previous Version | Text Only | Print | Product List | Glossary Off
Versions: 1 2 3 4 5 6 7 8 9 10 11 12 13 14 15 16 17 18 19 20 21 22 23 24 25 26 27 28 29 30 31 32 33 34 35 36 37 38 39 40 41 42 43 44 45 46 47 48 49 50

000
ASUS43 KBIS 200510
RWRND

NORTH DAKOTA REGIONAL WEATHER ROUNDUP
NATIONAL WEATHER SERVICE BISMARCK ND
1200 AM CDT SUN AUG 20 2017

NOTE: "FAIR" INDICATES FEW OR NO CLOUDS BELOW 12,000 FEET WITH NO
SIGNIFICANT WEATHER AND/OR OBSTRUCTIONS TO VISIBILITY.


NDZ001>003-009>011-017-200600-
NORTHWEST NORTH DAKOTA

CITY           SKY/WX    TMP DP  RH WIND       PRES   REMARKS
WILLISTON      PTCLDY    66  38  35 N14       29.96R
MINOT          CLEAR     65  44  46 W13       29.88R
MINOT AFB      CLEAR     61  45  54 NW12      29.87R
$$

NDZ018>021-031>035-040>046-200600-
SOUTHWEST NORTH DAKOTA

CITY           SKY/WX    TMP DP  RH WIND       PRES   REMARKS
BISMARCK       CLEAR     72  50  45 NW14G22   29.88R
DICKINSON      CLEAR     62  45  53 N7        29.94R
GARRISON         N/A     59  49  69 NW12      29.90R
HETTINGER ARPT CLEAR     64  48  56 N9        29.96R
$$

NDZ004>008-012>016-024-026-027-054-200600-
NORTHEAST NORTH DAKOTA

CITY           SKY/WX    TMP DP  RH WIND       PRES   REMARKS
GRAND FORKS    CLEAR     71  65  81 S14       29.72R
GRND FRKS AFB  CLEAR     69  64  85 SW10      29.73R
DEVILS LAKE    CLEAR     70  58  65 N17       29.80R
$$

NDZ022-023-025-028>030-036>039-047>053-200600-
SOUTHEAST NORTH DAKOTA

CITY           SKY/WX    TMP DP  RH WIND       PRES   REMARKS
FARGO          PTCLDY    70  65  84 S12       29.77S
JAMESTOWN      CLEAR     67  62  84 W8        29.80R
$$





USA.gov is the U.S. government's official web portal to all federal, state and local government web resources and services.